Date String (YYYY-MM-DD hh:mm:ss) UTC,Instrument flags,absolute air pressure of the measurement (hPa),sample flow rate (lpm),inlet stack bypass flow (lpm),air temperature of the measurement (°C),ambient temperature measured by the external sensor (°C),aerosol sample conditioner tube jacket temperature (°C),OPC LED temperature (°C),internal box temperature (°C),relative humidity of the measurement (%),span deviation,mass concentration of particles derived from Lorenz-Mie calculation of OPC scattering (μg/m³),mass concentration of particles derived from Lorenz-Mie calculation of OPC scattering (μg/m³),mass concentration of particles derived from Lorenz-Mie calculation of OPC scattering (μg/m³)
DateTimeUTC,F1_M11,P_M11,Q1_M11,Q2_M11,T1_M11,T2_M11,T3_M11,T4_M11,T5_M11,U1_M11,ZSPAN_M11,X0_M11,X2_M11,X1_M11
2023-08-22 00:00:00,SystemResetWarning,0833.2,4.99,000.00,027.9,025.0,000.0,036.0,029.5,19.8,0001.8,0017.02,0007.64,0005.77
2023-08-22 00:01:00,SystemResetWarning,0833.2,5.01,000.00,027.8,024.3,000.0,035.9,029.3,19.9,0001.9,0017.14,0007.62,0005.77
2023-08-22 00:02:00,SystemResetWarning,0833.2,5.01,000.00,027.8,024.7,000.0,035.9,029.3,19.9,0001.3,0016.49,0007.63,0005.78
2023-08-22 00:03:00,SystemResetWarning,0833.2,4.99,000.00,027.8,025.1,000.0,035.9,029.3,20.0,0000.9,0016.59,0007.65,0005.79
2023-08-22 00:04:00,SystemResetWarning,0833.2,4.99,000.00,027.8,025.6,000.0,036.0,029.4,19.6,0001.0,0016.63,0007.64,0005.79
2023-08-22 00:05:00,SystemResetWarning,0833.1,5.00,000.00,027.9,026.1,000.0,036.0,029.6,19.4,0001.1,0017.64,0007.65,0005.80
2023-08-22 00:06:00,SystemResetWarning,0833.1,5.01,000.00,027.9,026.2,000.0,036.1,029.7,19.8,0001.0,0018.44,0007.59,0005.79
2023-08-22 00:07:00,SystemResetWarning,0833.2,4.98,000.00,027.9,024.9,000.0,036.0,029.5,19.8,0001.1,0018.96,0007.55,0005.78
2023-08-22 00:08:00,SystemResetWarning,0833.2,5.02,000.00,027.8,024.2,000.0,035.9,029.3,19.3,0001.2,0018.99,0007.58,0005.79
2023-08-22 00:09:00,SystemResetWarning,0833.3,5.01,000.00,027.8,024.6,000.0,035.9,029.3,19.8,0001.0,0019.68,0007.62,0005.81
2023-08-22 00:10:00,SystemResetWarning,0833.1,5.00,000.00,027.8,025.0,000.0,036.0,029.3,20.1,0000.8,0020.58,0007.60,0005.82
2023-08-22 00:11:00,SystemResetWarning,0833.1,5.00,000.00,027.8,025.4,000.0,036.0,029.4,19.6,0000.9,0021.23,0007.68,0005.85
2023-08-22 00:12:00,SystemResetWarning,0833.1,4.99,000.00,027.8,025.9,000.0,036.0,029.5,20.0,0001.1,0020.98,0007.75,0005.87
2023-08-22 00:13:00,SystemResetWarning,0833.2,4.99,000.00,027.9,026.3,000.0,036.1,029.7,20.1,0001.6,0022.01,0007.76,0005.88
2023-08-22 00:14:00,SystemResetWarning,0833.0,4.99,000.00,027.9,025.6,000.0,036.0,029.5,20.0,0001.8,0023.03,0007.78,0005.89
2023-08-22 00:15:00,SystemResetWarning,0833.1,5.01,000.00,027.9,024.3,000.0,036.0,029.3,20.3,0001.7,0023.63,0007.82,0005.89
2023-08-22 00:16:00,SystemResetWarning,0833.2,5.01,000.00,027.8,024.4,000.0,035.9,029.3,20.0,0001.6,0023.22,0007.85,0005.90
2023-08-22 00:17:00,SystemResetWarning,0833.1,5.00,000.00,027.8,024.8,000.0,035.9,029.3,19.7,0002.2,0023.32,0007.87,0005.90
2023-08-22 00:18:00,SystemResetWarning,0833.0,5.01,000.00,027.8,025.3,000.0,036.0,029.3,19.7,0002.1,0023.57,0007.88,0005.91
2023-08-22 00:19:00,SystemResetWarning,0833.0,4.99,000.00,027.8,025.7,000.0,036.0,029.5,19.9,0001.8,0024.19,0007.84,0005.90
2023-08-22 00:20:00,SystemResetWarning,0833.1,5.00,000.00,027.9,026.1,000.0,036.1,029.6,19.6,0002.0,0024.38,0007.90,0005.89
2023-08-22 00:21:00,SystemResetWarning,0833.2,4.98,000.00,027.9,025.4,000.0,036.0,029.5,19.6,0002.0,0023.44,0007.86,0005.88
2023-08-22 00:22:00,SystemResetWarning,0833.2,5.00,000.00,027.8,024.1,000.0,035.9,029.2,19.7,0001.9,0022.64,0007.83,0005.87
2023-08-22 00:23:00,SystemResetWarning,0833.0,5.02,000.00,027.8,024.3,000.0,035.9,029.2,19.6,0001.7,0022.54,0007.75,0005.86
2023-08-22 00:24:00,SystemResetWarning,0833.0,4.99,000.00,027.7,024.7,000.0,035.9,029.2,20.3,0001.3,0021.34,0007.70,0005.85
2023-08-22 00:25:00,SystemResetWarning,0832.9,4.99,000.00,027.7,025.2,000.0,036.0,029.3,20.4,0001.3,0020.26,0007.68,0005.84
2023-08-22 00:26:00,SystemResetWarning,0832.9,5.01,000.00,027.8,025.7,000.0,036.0,029.4,19.8,0001.8,0020.13,0007.60,0005.82
2023-08-22 00:27:00,SystemResetWarning,0833.0,5.01,000.00,027.8,026.1,000.0,036.0,029.6,19.7,0002.1,0020.19,0007.57,0005.81
2023-08-22 00:28:00,SystemResetWarning,0833.0,5.00,000.00,027.9,026.0,000.0,036.0,029.6,20.4,0002.1,0020.12,0007.56,0005.80
2023-08-22 00:29:00,SystemResetWarning,0833.0,4.98,000.00,027.8,024.6,000.0,036.0,029.4,20.2,0002.3,0018.91,0007.53,0005.80
2023-08-22 00:30:00,SystemResetWarning,0833.2,5.02,000.00,027.8,024.2,000.0,035.9,029.2,20.4,0002.3,0017.91,0007.49,0005.80
2023-08-22 00:31:00,SystemResetWarning,0832.9,5.00,000.00,027.7,024.6,000.0,035.9,029.3,20.4,0002.3,0018.14,0007.43,0005.79
2023-08-22 00:32:00,SystemResetWarning,0832.8,4.99,000.00,027.7,025.0,000.0,035.9,029.3,20.5,0002.2,0018.87,0007.46,0005.78
2023-08-22 00:33:00,SystemResetWarning,0833.0,5.00,000.00,027.7,025.4,000.0,036.0,029.4,20.2,0002.4,0019.21,0007.50,0005.78
2023-08-22 00:34:00,SystemResetWarning,0832.8,5.01,000.00,027.8,025.9,000.0,036.0,029.5,20.2,0002.5,0019.54,0007.57,0005.77
2023-08-22 00:35:00,SystemResetWarning,0832.9,5.01,000.00,027.9,026.2,000.0,036.0,029.6,20.3,0002.7,0019.89,0007.62,0005.76
2023-08-22 00:36:00,SystemResetWarning,0832.8,4.99,000.00,027.9,025.4,000.0,036.0,029.5,20.2,0002.7,0019.93,0007.62,0005.75
2023-08-22 00:37:00,SystemResetWarning,0832.8,5.00,000.00,027.8,024.1,000.0,035.9,029.3,20.5,0002.7,0019.16,0007.63,0005.74
2023-08-22 00:38:00,SystemResetWarning,0832.7,5.01,000.00,027.8,024.3,000.0,035.9,029.3,20.6,0002.2,0018.64,0007.56,0005.73
2023-08-22 00:39:00,SystemResetWarning,0832.8,5.00,000.00,027.7,024.7,000.0,035.9,029.2,20.5,0001.9,0018.06,0007.52,0005.73
2023-08-22 00:40:00,SystemResetWarning,0832.8,5.00,000.00,027.7,025.1,000.0,035.9,029.3,20.8,0001.6,0018.94,0007.55,0005.73
2023-08-22 00:41:00,SystemResetWarning,0832.8,5.00,000.00,027.8,025.6,000.0,036.0,029.4,20.7,0001.9,0019.18,0007.58,0005.72
2023-08-22 00:42:00,SystemResetWarning,0832.8,5.00,000.00,027.8,026.0,000.0,036.0,029.6,20.3,0002.0,0018.85,0007.60,0005.72
2023-08-22 00:43:00,SystemResetWarning,0832.8,5.00,000.00,027.9,026.3,000.0,036.0,029.6,20.2,0002.1,0019.04,0007.62,0005.71
2023-08-22 00:44:00,SystemResetWarning,0832.8,4.98,000.00,027.9,025.4,000.0,036.0,029.5,20.2,0002.2,0020.42,0007.61,0005.71
2023-08-22 00:45:00,SystemResetWarning,0832.7,5.01,000.00,027.8,024.2,000.0,035.9,029.3,19.9,0001.9,0021.08,0007.59,0005.71
2023-08-22 00:46:00,SystemResetWarning,0832.7,5.01,000.00,027.8,024.4,000.0,035.9,029.3,20.4,0001.5,0020.82,0007.54,0005.71
2023-08-22 00:47:00,SystemResetWarning,0832.7,5.00,000.00,027.8,024.8,000.0,035.9,029.3,20.3,0001.3,0021.05,0007.56,0005.72
2023-08-22 00:48:00,SystemResetWarning,0832.7,5.00,000.00,027.7,025.2,000.0,036.0,029.3,20.3,0001.3,0020.98,0007.62,0005.74
2023-08-22 00:49:00,SystemResetWarning,0832.7,5.00,000.00,027.8,025.7,000.0,036.0,029.4,20.5,0001.6,0021.81,0007.69,0005.74
2023-08-22 00:50:00,SystemResetWarning,0832.7,4.99,000.00,027.8,026.1,000.0,036.0,029.6,20.2,0001.6,0022.35,0007.74,0005.71
2023-08-22 00:51:00,SystemResetWarning,0832.7,4.99,000.00,027.9,025.9,000.0,036.0,029.5,19.7,0001.1,0021.68,0007.66,0005.68
2023-08-22 00:52:00,SystemResetWarning,0832.6,4.99,000.00,027.8,024.5,000.0,036.0,029.3,20.0,0000.6,0021.67,0007.65,0005.67
2023-08-22 00:53:00,SystemResetWarning,0832.6,5.02,000.00,027.8,024.1,000.0,035.9,029.2,19.9,0000.7,0021.63,0007.60,0005.67
2023-08-22 00:54:00,SystemResetWarning,0832.7,5.00,000.00,027.7,024.5,000.0,035.9,029.2,20.4,0001.1,0021.76,0007.56,0005.67
2023-08-22 00:55:00,SystemResetWarning,0832.6,5.00,000.00,027.7,024.9,000.0,035.9,029.2,20.2,0001.2,0021.01,0007.55,0005.66
2023-08-22 00:56:00,SystemResetWarning,0832.6,5.00,000.00,027.7,025.4,000.0,036.0,029.4,20.1,0001.3,0019.95,0007.54,0005.66
2023-08-22 00:57:00,SystemResetWarning,0832.6,4.99,000.00,027.8,025.8,000.0,036.0,029.5,20.3,0001.5,0019.71,0007.57,0005.65
2023-08-22 00:58:00,SystemResetWarning,0832.6,5.00,000.00,027.8,026.1,000.0,036.0,029.6,19.9,0002.0,0019.75,0007.58,0005.64
2023-08-22 00:59:00,SystemResetWarning,0832.6,4.98,000.00,027.8,025.1,000.0,036.0,029.4,20.2,0002.0,0020.22,0007.49,0005.61
